User: anonymous   Login
Location: Lake Almanor
(40.2485°N, 121.1442°W)
Time: 11:25:35
(UTC-07:00)
Language:

STARLINK-1075 - Orbit

View from above orbital plane
View from above orbital plane
View from above satellite
View from above satellite

Ground track
Ground track

The orbit data is extracted from the following two-line orbital elements,

1 44958C 20001AW  20091.54572428  .00010064  00000-0  10968-3 0   913
2 44958  53.0004 338.0372 0001213  63.8023  77.2609 15.62743831    11
Epoch (UTC): 31 March 2020 13:05:50
Eccentricity: 0.0001213
inclination: 53.0004°
perigee height: 379 km
apogee height: 380 km
right ascension of ascending node: 338.0372°
argument of perigee: 63.8023°
revolutions per day: 15.62743831
mean anomaly at epoch: 77.2609°
orbit number at epoch: 1

The dashed part of the orbit path shows where the satellite is in the earth's shadow,  

DLR